Weather Roundup
Issued by NWS Springfield, MO

Home | Current Version | Previous Version | Text Only | Print | Product List | Glossary On
Versions: 1 2 3 4 5 6 7 8 9 10 11 12 13 14 15 16 17 18 19 20 21 22 23 24 25 26 27 28 29 30 31 32 33 34 35 36 37 38 39 40 41 42 43 44 45 46 47 48 49 50
323
NZUS99 KSGF 050157
HRRSGF

HOURLY WEATHER
NATIONAL WEATHER SERVICE SPRINGFIELD MO
900 PM CDT WED MAY 04 2016

......SGF CWA......

CITY           SKY/WX    TMP DP  RH WIND       PRES   REMARKS
SPRINGFIELD    CLEAR     57  38  48 N6        29.95R
JOPLIN         CLEAR     59  42  53 N3        29.98R
ROLLA          CLEAR     55  36  48 N5        29.91R
BRANSON        CLEAR     63  37  39 NW8       29.96R

......SURROUNDING SGF CWA......

CITY           SKY/WX    TMP DP  RH WIND       PRES   REMARKS
CHANUTE        CLEAR     63  38  39 N5        29.99R
PARSONS        CLEAR     58  41  53 N3        30.00R
COFFEYVILLE    CLEAR     61  39  44 N5        29.99R
EMPORIA        CLEAR     60  39  45 NW5       30.01R
HARRISON AR    CLEAR     59  39  47 NW5       29.95R

......KANSAS AND MISSOURI......

CITY           SKY/WX    TMP DP  RH WIND       PRES   REMARKS
KANSAS CTY INT CLEAR     58  36  43 NW6       29.98R
SEDALIA        CLEAR     60  38  43 N9        29.97R
ST JOSEPH      CLEAR     57  39  51 CALM      29.98R
ST LOUIS       PTCLDY    56  37  49 NW5       29.90R
WICHITA        CLEAR     65  35  33 N7        30.03R
TOPEKA         CLEAR     60  39  45 NW3       30.00R
OLATHE         CLEAR     61  36  39 NW3       29.98R

......TENNESSEE......

CITY           SKY/WX    TMP DP  RH WIND       PRES   REMARKS
MEMPHIS        NOT AVBL
NASHVILLE      CLEAR     58  40  51 N12       29.81R

......ARKANSAS.......

CITY           SKY/WX    TMP DP  RH WIND       PRES   REMARKS
FAYETTEVILLE   CLEAR     57  42  57 CALM      29.97R
FT SMITH       CLEAR     67  37  33 NW6       29.94R
LITTLE ROCK    CLEAR     67  40  37 N9        29.87R

......OKLAHOMA.......

CITY           SKY/WX    TMP DP  RH WIND       PRES   REMARKS
TULSA          CLEAR     63  42  46 N7        29.96S
PONCA CITY     CLEAR     61  41  47 N3        30.01R
MCALESTER      CLEAR     66  42  41 N5        29.97R
OKLAHOMA CITY  CLEAR     69  43  38 N9        30.01R

......IOWA............

CITY           SKY/WX    TMP DP  RH WIND       PRES   REMARKS
DES MOINES     NOT AVBL
QUAD CITIES    CLEAR     57  32  38 N6        29.87R

......ILLINOIS........

CITY           SKY/WX    TMP DP  RH WIND       PRES   REMARKS
QUINCY         CLEAR     54  39  57 W3        29.89R
CHICAGO        MOCLDY    44  35  70 N15       29.87R




USA.gov is the U.S. government's official web portal to all federal, state and local government web resources and services.